This demonstration page uses our WeatherBlox Daily Observations layout. Learn more.

Left ArrowRight Arrow

34.02893, -84.19858

Hourly Observations for May 4, 2015

Temp ( °F °C ) Dew Point ( °F °C ) Humidity (%) Winds ( mph kmh ) Pressure ( in mb ) Visibility ( mi km ) Precip ( " mm )
12:53 am 00:53 Cloudy 60 15.6 51 10.6 72 72 Calm 30.18 1022 10 16 0.00 0.00
1:53 am 01:53 Partly Cloudy 59 15 51 10.6 75 75 Calm 30.17 1022 10 16 0.00 0.00
2:53 am 02:53 Clear 57 13.9 51 10.6 81 81 Calm 30.17 1022 10 16 0.00 0.00
3:53 am 03:53 Clear 56 13.3 51 10.6 84 84 Calm 30.16 1021 10 16 0.00 0.00
4:53 am 04:53 Clear 55 12.8 50 10 83 83 Calm 30.17 1022 10 16 0.00 0.00
5:53 am 05:53 Clear 53 11.7 50 10 89 89 Calm 30.19 1022 10 16 0.00 0.00
6:53 am 06:53 Sunny 53 11.7 51 10.6 93 93 Calm 30.22 1024 9 14 0.00 0.00
7:53 am 07:53 Sunny 58 14.4 54 12.2 87 87 Calm 30.26 1025 7 11 0.00 0.00
8:53 am 08:53 Sunny 65 18.3 53 11.7 66 66 S 3 6 30.27 1025 10 16 0.00 0.00
9:53 am 09:53 Sunny 70 21.1 54 12.2 57 57 SSW 3 6 30.27 1025 10 16 0.00 0.00
10:53 am 10:53 Sunny 74 23.3 53 11.7 48 48 SW 5 7 30.28 1026 N/A 0.00 0.00
11:53 am 11:53 Sunny 78 25.6 51 10.6 39 39 undefined N/A 30.29 1026 N/A 0.00 0.00
12:53 pm 12:53 Mostly Cloudy 78 25.6 49 9.4 36 36 Calm 30.28 1026 8 13 0.00 0.00
1:53 pm 13:53 Partly Cloudy 78 25.6 50 10 37 37 SW 8 13 30.27 1025 8 13 0.00 0.00
2:53 pm 14:53 Cloudy 82 27.8 50 10 33 33 VRB 5 7 30.25 1024 9 14 0.00 0.00
3:53 pm 15:53 Cloudy 81 27.2 51 10.6 35 35 VRB 6 9 30.24 1024 9 14 0.00 0.00
4:53 pm 16:53 Mostly Sunny 79 26.1 50 10 36 36 Calm 30.22 1023 9 14 0.00 0.00
5:53 pm 17:53 Mostly Cloudy 77 25 50 10 39 39 SE 6 9 30.22 1023 8 13 0.00 0.00
6:53 pm 18:53 Mostly Sunny 76 24.4 51 10.6 42 42 Calm 30.22 1023 9 14 0.00 0.00
7:53 pm 19:53 Sunny 73 22.8 53 11.7 50 50 Calm 30.22 1023 9 14 0.00 0.00
8:53 pm 20:53 Clear 69 20.6 52 11.1 55 55 Calm 30.23 1024 9 14 0.00 0.00
9:53 pm 21:53 Clear 66 18.9 53 11.7 63 63 Calm 30.25 1024 9 14 0.00 0.00
10:53 pm 22:53 Clear 62 16.7 53 11.7 73 73 Calm 30.26 1025 9 14 0.00 0.00
11:53 pm 23:53 Clear 60 15.6 53 11.7 78 78 undefined N/A 30.26 1025 8 13 0.00 0.00

Powered by AerisWeather